Flag for U.S.A. Weather past 2 weeks in Mason, Ohio, U.S.A.

Now
70 °F

Fog.


Feels Like: 64 °F
Forecast: 68 / 87 °F
Wind: 3 mph from Southeast

Location: Butler County Regional Airport

Current Time: Aug 30, 2014 at 7:11:47 AM

Latest Report: Aug 30, 2014 at 5:53 AM


Visibility: 5 mi

Pressure: 30.03 "Hg

Humidity: 97%

Dew point: 69 °F

Location of MasonLocation

Historic Weather in Mason — Graph

°F

Mason temperature yesterday

Maximum temperature yesterday: 90 °F (at 4:53 PM)
Minimum temperature yesterday: 64 °F (at 5:53 AM)
Average temperature yesterday: 75 °F

Past Weeks' High & Low Weather Summary

 TemperatureHumidityPressure
High92 °F (Aug 26, 4:53 PM)100% (Aug 19, 6:02 AM)30.14 "Hg (Aug 19, 6:02 AM)
Low48 °F (Aug 15, 6:53 AM)26% (Aug 15, 3:53 PM)29.79 "Hg (Aug 18, 4:53 PM)
Average75 °F80%29.99 "Hg
* Reported Aug 15 5:53 AM — Aug 30 5:53 AM, Mason, Weather by CustomWeather, © 2014

Note: Actual official high and low records may vary slightly from our data, if they occured in-between our weather recording intervals... More about our weather records

Advertising

Mason weather history for previous 24 hours

 ConditionsComfort  
Time TempWeatherWind HumidityBarometerVisibility
5:53 AM
Aug 30
70 °FFog.3 mph97%30.03 "Hg5 mi
4:53 AM71 °FClear.3 mph96%30.02 "Hg7 mi
3:53 AM71 °FFog.No wind96%30.02 "Hg6 mi
2:53 AM72 °FClear.No wind93%30.03 "Hg8 mi
1:53 AM72 °FClear.3 mph93%30.03 "Hg9 mi
12:53 AM74 °FClear.No wind91%30.04 "Hg8 mi
11:53 PM
Aug 29
73 °FClear.3 mph97%30.03 "Hg7 mi
10:53 PM73 °FFog.No wind97%30.02 "Hg3 mi
9:53 PM73 °FFog.No wind97%30.01 "Hg6 mi
8:53 PM76 °FLight rain. Fog.3 mph91%30.01 "Hg3 mi
7:53 PM80 °FLight rain. Cloudy.5 mph71%30.00 "Hg10 mi
6:53 PM85 °FPassing clouds.7 mph61%29.98 "Hg10 mi
5:53 PM88 °FPassing clouds.5 mph54%29.98 "Hg10 mi
4:53 PM90 °FPassing clouds.3 mph50%29.98 "Hg10 mi
2:53 PM88 °FSunny.5 mph48%30.03 "Hg10 mi
1:53 PM86 °FSunny.9 mph49%30.05 "Hg10 mi
12:53 PM83 °FSunny.8 mph55%30.07 "Hg10 mi
11:53 AM81 °FSunny.8 mph54%30.09 "Hg10 mi
10:53 AM77 °FSunny.7 mph58%30.10 "Hg10 mi
9:53 AM75 °FSunny.5 mph62%30.10 "Hg10 mi
8:53 AM69 °FSunny.8 mph73%30.10 "Hg10 mi
7:53 AM66 °FClear.No wind81%30.09 "Hg10 mi
Weather by CustomWeather, © 2014

See weather overviewHow to use our weather pages